ROMMA est une association bénévole à but non lucratif. Votre soutien est indispensable : ADHERER à ROMMA ou FAIRE un DON

Chambon - (38, Isère)

Oisans (2460 m)   Longitude: 06° 10' 42" E   Latitude: 45° 01' 32" N Station partenaire n°803
 

Détail journalier du     <<     >>

Température Humidité Vent Dir Rafale Dir. rafale Neige 1 Neige 2
Heure (°C) (%) (km/h) (km/h) (cm) (cm)
01:00 2.31004SO18SO04
02:00 2.01005ONO14NNO04
03:00 2.5946NNE20O04
04:00 1.9985N17N04
05:00 2.7885NNE30SSO04
06:00 2.7877SSO30SSO04
07:00 3.2819SSO31SSO04
08:00 3.18412SSO33SSO04
09:00 3.88213SO30SO04
10:00 3.58610SO28SO04
11:00 3.39011SSO32SSO04
12:00 3.98614S36SSO03
13:00 3.99113S31S03
14:00 3.39713SO28OSO04
15:00 4.6927S26S03
16:00 4.7866S27S03
17:00 4.1876S25SSO03
18:00 3.6915SSO30SSO03
19:00 3.2907SSE29SSE03
20:00 3.4819SSE33S03
21:00 3.57811S34S03
22:00 3.27913S38S03
23:00 3.77415S47SSO03
minuit 4.07422SSO53SSO03

Graphique du 18-10-2019

 

Serveur OMMA